STARLINK-5718, 55620

Orbit data source: Space-Track

STARLINK-5718, 55620 is a payload satellite owned by SpaceX/Seattle (US) in LEO that was launched on Sun, 12 Feb 2023 UTC via an FALCON 9 launch vehicle from the Air Force Eastern Test Range (AFETR). Payload-class satellites include a variety of spacecraft equipped with specific instruments for various scientific and technological missions. These include communications satellites like Starlink; space stations such as the ISS; scientific satellites like the Hubble; Earth observation satellites from companies like Planet Labs, Umbra, and HawkEye 360; GPS; miniature CubeSats for education and research; and military/defense satellites.

Loading next visibility...
Identifier
55620, 2023-020BD
Orbit
LEO
Country
Flag of USUS
Related business
Manufacturer
SpaceX/Seattle
Mission
Operational Commercial Communications
Bus & Motor
STARLINK, Unknown motor
Mass
305 kg wet, ~290 kg dry
Launch date (UTC)
2023-02-12 (3 years ago)
Launch vehicle
FALCON 9
Launch site
Air Force Eastern Test Range (AFETR)
Object type
Payload
Rocket body
Debris
Shape & HBR
Box + 1 Pan, 10.1 m
Radar Cross Section
13.562 m², Large (>1 m²)

Expand to show TLE details & history
Last TLE update: 2 days ago

TLE from 2 days ago
0 STARLINK-5718
1 55620U 23020BD  25312.24421077 -.00000739  00000-0 -39610-4 0  9999
2 55620  43.0028 291.3144 0001399 270.4003  89.6679 15.02530558150802
Epoch: 2025-11-08T05:51Z
TLE epoch observation values (Epoch: 2025-11-08T05:51:39.810Z)
Latitude
-0.00002°
Longitude
155.7219°
Altitude
558.869 km
Speed
7.584 km/s
True Right ascension
19h 25m 15s
True Declination
0° 00' 00"
Sunlit
Object was in daylight at epoch
Visualization orbit readout
Latitude
Unknown
Longitude
Unknown
Altitude
Unknown
Speed
Unknown
Apparent Right ascension
Unknown
Apparent Declination
Unknown
Sunlit
N/A
Visualization observer readout
Local Sidereal Time
18:51:56
Azimuth
Unknown
Elevation
Unknown
Doppler factor
Unknown
Orbital elements
Apogee altitude
561.991 km
Perigee altitude
560.049 km
Semi-major axis
6,939.157 km
Eccentricity
0.00014
Inclination
43.0028°
RAAN
291.3144°
Arg. of periapsis
270.4003°
True anomaly
89.68393°
Mean anomaly
89.6679°
Eccentric anomaly
89.67592°
Mean motion
3.75477 °/min
Orbital period
95.88 mins
BSTAR
-0.00003961
Loading maneuver chart data...
Computing Atmospheric mass density...
Loading historical data...
Loading historical data...
Loading historical data...
Loading historical data...
Loading historical data...
Loading historical data...
Loading historical data...

Documentation

Showing up to 5 results
|